CW3467 Weather Reports


time (UTC)temp
C
wind
direction
speed
KPH
gust
KPH
rain 1hr
cm
rain 24hr
cm
rain mn
cm
humidity
%
barometer
mb
20260510064003 10 252 0.0 3.2 0.00 0.23 0.00 100 1013.1
20260510063503 10 243 0.0 1.6 0.00 0.23 0.00 100 1013.3
20260510063024 10 257 0.0 1.6 0.00 0.23 0.00 100 1013.2
20260510062525 10 263 0.0 1.6 0.00 0.23 0.00 100 1013.1
20260510062004 10 230 0.0 1.6 0.00 0.23 0.00 100 1013.2
20260510061504 10 0 0.0 0.0 0.00 0.23 0.00 100 1012.9
20260510061004 10 290 0.0 1.6 0.00 0.23 0.00 100 1013.1
20260510060503 10 336 0.0 1.6 0.00 0.23 0.00 100 1013.0
20260510060024 10 336 0.0 1.6 0.00 0.23 0.00 100 1013.1
20260510055503 10 251 0.0 1.6 0.00 0.23 0.00 100 1012.9
20260510055003 10 248 0.0 1.6 0.00 0.23 0.00 100 1013.0
20260510054504 10 251 0.0 3.2 0.00 0.23 0.00 100 1013.1
20260510054003 10 252 0.0 3.2 0.00 0.23 0.00 100 1013.0
20260510053503 10 123 0.0 3.2 0.00 0.23 0.00 100 1013.1
20260510053024 10 160 0.0 3.2 0.00 0.23 0.00 100 1013.1
20260510052524 11 243 0.0 1.6 0.00 0.23 0.00 100 1012.9
20260510052024 11 253 0.0 1.6 0.00 0.23 0.00 100 1013.1
20260510051503 11 0 0.0 0.0 0.00 0.23 0.00 100 1012.9
20260510051024 11 245 0.0 1.6 0.00 0.23 0.00 100 1012.7
20260510050503 10 243 0.0 1.6 0.00 0.23 0.00 100 1012.9
20260510050004 10 241 0.0 1.6 0.00 0.23 0.00 100 1012.7
20260510045503 10 0 0.0 0.0 0.00 0.23 0.00 100 1013.0
20260510045024 11 0 0.0 0.0 0.00 0.23 0.00 100 1012.9
20260510044524 11 0 0.0 0.0 0.00 0.23 0.00 100 1013.1
20260510044004 11 192 0.0 1.6 0.00 0.23 0.00 100 1013.0
20260510043504 11 192 0.0 1.6 0.00 0.23 0.00 100 1013.0
20260510043003 10 227 0.0 1.6 0.00 0.23 0.00 100 1012.9
20260510042503 11 229 0.0 1.6 0.00 0.23 0.00 100 1012.9
20260510042003 11 235 0.0 1.6 0.00 0.23 0.00 100 1013.0
20260510041503 11 0 0.0 0.0 0.00 0.23 0.00 100 1012.5
20260510041003 10 0 0.0 0.0 0.00 0.23 0.00 100 1012.6
20260510040503 10 0 0.0 0.0 0.00 0.23 0.00 100 1012.9
20260510040004 10 249 0.0 1.6 0.00 0.23 0.00 100 1013.1
20260510035524 10 250 0.0 1.6 0.00 0.23 0.00 100 1012.9
20260510035003 10 253 0.0 1.6 0.00 0.23 0.00 100 1013.1
20260510034503 10 249 0.0 1.6 0.00 0.23 0.00 100 1013.1
20260510034003 10 247 1.6 3.2 0.00 0.23 0.00 100 1013.1
20260510033503 10 256 1.6 4.8 0.00 0.23 0.00 100 1013.2
20260510033024 10 259 1.6 4.8 0.00 0.23 0.00 100 1013.2
20260510032524 11 252 0.0 4.8 0.00 0.23 0.00 100 1013.0
20260510032004 11 0 0.0 0.0 0.00 0.23 0.00 100 1013.2
20260510031503 11 191 0.0 1.6 0.00 0.23 0.00 100 1013.0
20260510031003 11 225 0.0 1.6 0.00 0.23 0.00 100 1013.3
20260510030503 11 241 0.0 1.6 0.00 0.23 0.00 100 1013.1
20260510030004 11 233 0.0 1.6 0.00 0.23 0.00 100 1013.2
20260510025503 11 171 0.0 1.6 0.00 0.23 0.00 100 1013.1
20260510025003 11 195 0.0 1.6 0.00 0.23 0.00 100 1013.1
20260510024503 11 221 0.0 1.6 0.00 0.23 0.00 100 1013.1
20260510024024 11 185 0.0 1.6 0.00 0.23 0.00 100 1013.1
20260510023524 11 185 0.0 1.6 0.00 0.23 0.00 100 1013.0
20260510023024 11 0 0.0 0.0 0.00 0.23 0.00 100 1013.3
20260510022503 11 0 0.0 0.0 0.00 0.23 0.00 100 1013.2
20260510022003 11 215 0.0 1.6 0.00 0.23 0.00 100 1013.2
20260510021503 11 215 0.0 1.6 0.00 0.23 0.00 100 1013.2
20260510021003 11 0 0.0 0.0 0.00 0.23 0.00 100 1013.5
20260510020503 11 233 0.0 1.6 0.00 0.23 0.00 100 1013.4
20260510020003 11 243 0.0 1.6 0.00 0.23 0.00 100 1013.5
20260510015503 11 247 1.6 1.6 0.00 0.23 0.00 100 1013.8
20260510015003 11 251 1.6 3.2 0.00 0.23 0.00 100 1013.6
20260510014503 11 250 0.0 3.2 0.00 0.23 0.00 100 1013.8
20260510014003 11 244 0.0 1.6 0.00 0.23 0.00 100 1013.6
20260510013503 11 244 0.0 1.6 0.00 0.23 0.00 100 1013.5
20260510013003 11 0 0.0 0.0 0.00 0.23 0.00 100 1013.5
20260510012503 11 0 0.0 0.0 0.00 0.23 0.00 100 1013.4
20260510012003 11 0 0.0 0.0 0.00 0.23 0.00 100 1013.5
20260510011503 11 0 0.0 0.0 0.00 0.23 0.00 100 1013.5
20260510011003 11 211 0.0 1.6 0.00 0.23 0.00 100 1013.4
20260510010524 11 213 0.0 1.6 0.00 0.23 0.00 100 1013.6
20260510010025 11 215 0.0 1.6 0.00 0.23 0.00 100 1013.3
20260510005504 11 0 0.0 0.0 0.00 0.23 0.00 100 1013.7
20260510005004 11 218 0.0 1.6 0.00 0.23 0.00 100 1013.6
20260510004504 11 218 0.0 1.6 0.00 0.23 0.00 100 1013.5
20260510004004 11 0 0.0 0.0 0.00 0.23 0.00 100 1013.5
20260510003525 11 0 0.0 0.0 0.00 0.23 0.00 100 1013.5
20260510003004 11 0 0.0 0.0 0.00 0.23 0.00 100 1013.3
20260510002504 11 223 0.0 1.6 0.00 0.23 0.00 100 1013.5
20260510002025 11 223 0.0 1.6 0.00 0.23 0.00 100 1013.1
20260510001504 11 0 0.0 0.0 0.00 0.23 0.00 100 1013.4
20260510001004 11 0 0.0 0.0 0.00 0.23 0.00 100 1013.4
20260510000504 11 0 0.0 0.0 0.00 0.23 0.00 100 1013.5
20260510000005 11 0 0.0 0.0 0.00 0.23 0.00 100 1013.7
20260509235504 11 0 0.0 0.0 0.00 0.23 0.23 100 1013.7
20260509235025 11 0 0.0 0.0 0.00 0.23 0.23 100 1013.9
20260509234504 11 235 0.0 1.6 0.00 0.23 0.23 100 1014.0
20260509234005 11 242 0.0 1.6 0.00 0.23 0.23 100 1013.9
20260509233504 11 244 0.0 1.6 0.00 0.23 0.23 100 1013.9
20260509233004 11 0 0.0 0.0 0.00 0.23 0.23 100 1014.0
20260509232504 12 0 0.0 0.0 0.00 0.23 0.23 100 1014.0
20260509232004 12 0 0.0 0.0 0.00 0.23 0.23 100 1014.0
20260509231525 12 0 0.0 0.0 0.00 0.23 0.23 100 1014.1
20260509231005 12 0 0.0 0.0 0.00 0.23 0.23 100 1014.0
20260509230504 12 0 0.0 0.0 0.00 0.23 0.23 100 1014.1
20260509230004 12 0 0.0 0.0 0.00 0.23 0.23 100 1013.9
20260509225504 12 0 0.0 0.0 0.00 0.23 0.23 100 1014.0
20260509225025 12 0 0.0 0.0 0.00 0.23 0.23 100 1014.1
20260509224504 12 0 0.0 0.0 0.00 0.23 0.23 100 1014.1
20260509224004 12 0 0.0 0.0 0.00 0.23 0.23 100 1014.2
20260509223504 12 242 0.0 1.6 0.00 0.23 0.23 100 1014.2
20260509223025 12 243 0.0 3.2 0.00 0.23 0.23 100 1014.2
20260509222504 12 237 0.0 3.2 0.00 0.23 0.23 100 1014.5
20260509222004 12 269 0.0 1.6 0.00 0.23 0.23 100 1014.3
20260509221504 12 279 0.0 1.6 0.00 0.23 0.23 100 1014.2
20260509221004 12 293 0.0 1.6 0.00 0.23 0.23 100 1013.9
20260509220504 11 0 0.0 0.0 0.00 0.23 0.23 100 1014.0
20260509220004 11 223 0.0 1.6 0.00 0.23 0.23 100 1014.0
20260509215525 11 223 0.0 1.6 0.00 0.23 0.23 100 1013.9
20260509215004 11 0 0.0 0.0 0.00 0.23 0.23 100 1014.0
20260509214525 11 0 0.0 0.0 0.00 0.23 0.23 100 1014.2
20260509214004 12 223 0.0 1.6 0.00 0.23 0.23 100 1014.1
20260509213504 12 225 0.0 1.6 0.00 0.23 0.23 100 1013.9
20260509213004 12 227 0.0 1.6 0.00 0.23 0.23 100 1014.0
20260509212504 12 0 0.0 0.0 0.00 0.23 0.23 100 1014.1
20260509212025 12 0 0.0 0.0 0.00 0.23 0.23 100 1013.7
20260509211504 12 0 0.0 0.0 0.00 0.23 0.23 100 1013.9
20260509211004 11 0 0.0 0.0 0.00 0.23 0.23 100 1014.0
20260509210504 12 0 0.0 0.0 0.00 0.23 0.23 100 1014.0
20260509210004 12 0 0.0 0.0 0.00 0.23 0.23 100 1014.0
20260509205504 11 225 0.0 1.6 0.00 0.23 0.23 100 1014.0
20260509205004 11 225 0.0 1.6 0.00 0.23 0.23 100 1013.9
20260509204504 12 219 0.0 1.6 0.00 0.23 0.23 100 1013.8
20260509204004 12 219 0.0 1.6 0.00 0.23 0.23 100 1013.9
20260509203504 12 0 0.0 0.0 0.00 0.23 0.23 100 1013.7
20260509203004 12 0 0.0 0.0 0.00 0.23 0.23 100 1013.7
20260509202525 12 312 0.0 1.6 0.00 0.23 0.23 100 1013.6
20260509202025 12 297 0.0 1.6 0.00 0.23 0.23 100 1013.6
20260509201504 12 0 0.0 0.0 0.00 0.23 0.23 100 1013.6
20260509201004 12 0 0.0 0.0 0.00 0.23 0.23 100 1013.5
20260509200525 12 235 0.0 1.6 0.00 0.23 0.23 100 1013.3
20260509200004 12 231 0.0 1.6 0.00 0.23 0.23 100 1013.3
20260509195504 12 231 0.0 1.6 0.00 0.23 0.23 100 1013.0
20260509195004 12 0 0.0 0.0 0.00 0.23 0.23 100 1013.2
20260509194504 12 0 0.0 0.0 0.00 0.23 0.23 100 1013.0
20260509194025 12 0 0.0 0.0 0.00 0.23 0.23 100 1013.1
20260509193504 12 0 0.0 0.0 0.00 0.23 0.23 100 1013.1
20260509193004 12 243 0.0 1.6 0.00 0.23 0.23 100 1012.9
20260509192504 12 235 0.0 1.6 0.00 0.23 0.23 100 1012.7
20260509192025 12 219 0.0 1.6 0.00 0.23 0.23 100 1012.9
20260509191525 12 0 0.0 0.0 0.00 0.23 0.23 100 1012.6
20260509191004 12 0 0.0 0.0 0.00 0.23 0.23 100 1012.7
20260509190504 12 0 0.0 0.0 0.00 0.23 0.23 100 1012.5
20260509190004 12 213 0.0 1.6 0.00 0.23 0.23 100 1012.5
20260509185504 12 208 0.0 1.6 0.00 0.23 0.23 100 1012.4
20260509185004 12 221 0.0 1.6 0.00 0.23 0.23 100 1012.5
20260509184504 12 227 0.0 1.6 0.00 0.23 0.23 100 1012.4
20260509184004 12 224 0.0 1.6 0.00 0.23 0.23 100 1012.5
20260509183504 12 223 0.0 1.6 0.00 0.23 0.23 100 1012.4
20260509183004 12 222 0.0 1.6 0.00 0.23 0.23 100 1012.2
20260509182504 12 214 0.0 1.6 0.03 0.23 0.23 100 1012.2
20260509182004 12 227 0.0 3.2 0.03 0.23 0.23 100 1012.3
20260509181504 12 230 0.0 3.2 0.03 0.23 0.23 100 1012.1
20260509181004 12 200 0.0 3.2 0.03 0.23 0.23 100 1012.0
20260509180504 12 186 0.0 3.2 0.03 0.23 0.23 100 1012.1
20260509180004 12 224 0.0 3.2 0.03 0.23 0.23 100 1011.7
20260509175525 12 179 0.0 3.2 0.08 0.23 0.23 100 1011.8
20260509175025 12 138 0.0 3.2 0.15 0.23 0.23 100 1011.7
20260509174504 12 164 0.0 3.2 0.18 0.23 0.23 100 1011.7
20260509174004 12 179 0.0 1.6 0.20 0.23 0.23 100 1011.7
20260509173504 12 178 0.0 1.6 0.23 0.23 0.23 100 1011.7
20260509173004 12 184 0.0 3.2 0.23 0.23 0.23 100 1011.8
20260509172504 12 167 0.0 3.2 0.20 0.20 0.20 100 1011.7
20260509172004 12 212 0.0 3.2 0.20 0.20 0.20 100 1011.5
20260509171504 12 285 1.6 6.4 0.20 0.20 0.20 100 1011.6
20260509171004 12 274 3.2 6.4 0.20 0.20 0.20 97 1011.7
20260509170504 12 273 4.8 12.9 0.20 0.20 0.20 97 1011.7
20260509170004 12 268 4.8 12.9 0.20 0.20 0.20 96 1011.7
20260509165504 12 270 4.8 9.7 0.15 0.15 0.15 95 1011.7
20260509165004 12 272 4.8 11.3 0.08 0.08 0.08 92 1011.8
20260509164504 13 257 4.8 11.3 0.05 0.05 0.05 88 1011.7
20260509164004 14 252 3.2 9.7 0.03 0.03 0.03 86 1011.9
20260509163504 15 248 1.6 4.8 0.00 0.00 0.00 84 1011.8
20260509163004 15 251 1.6 6.4 0.00 0.00 0.00 83 1011.6
20260509162504 15 251 3.2 9.7 0.00 0.00 0.00 81 1011.7
20260509162004 16 273 3.2 9.7 0.00 0.00 0.00 78 1011.8
20260509161004 16 270 3.2 9.7 0.00 0.00 0.00 75 1011.9
20260509160504 16 275 3.2 9.7 0.00 0.00 0.00 72 1011.9
20260509160025 16 269 1.6 9.7 0.00 0.00 0.00 73 1012.1
20260509155658 16 254 1.6 9.7 0.00 0.00 0.00 72 1012.1
20260509154504 17 261 1.6 4.8 0.00 0.00 0.00 71 1011.8
20260509154005 17 266 1.6 4.8 0.00 0.00 0.00 72 1011.8
20260509153525 17 180 0.0 3.2 0.00 0.00 0.00 71 1011.8
20260509153025 17 199 0.0 3.2 0.00 0.00 0.00 70 1011.7
20260509152504 17 267 1.6 4.8 0.00 0.00 0.00 70 1011.6
20260509152004 17 58 1.6 4.8 0.00 0.00 0.00 71 1011.6
20260509151504 17 64 1.6 6.4 0.00 0.00 0.00 70 1011.5
20260509151004 17 62 1.6 6.4 0.00 0.00 0.00 72 1011.3
20260509150525 17 74 1.6 4.8 0.00 0.00 0.00 72 1011.5
20260509150004 17 70 1.6 4.8 0.00 0.00 0.00 73 1011.4
20260509145504 16 73 3.2 6.4 0.00 0.00 0.00 74 1011.4
20260509145004 16 79 3.2 6.4 0.00 0.00 0.00 73 1011.2
20260509144525 17 79 3.2 9.7 0.00 0.00 0.00 72 1011.3
20260509144004 17 91 3.2 9.7 0.00 0.00 0.00 73 1011.5
20260509143525 17 110 1.6 9.7 0.00 0.00 0.00 73 1011.3
20260509143025 17 251 1.6 4.8 0.00 0.00 0.00 71 1011.4
20260509142504 17 255 1.6 4.8 0.00 0.00 0.00 71 1011.5
20260509142004 17 248 1.6 3.2 0.00 0.00 0.00 71 1011.7
20260509141504 17 260 0.0 3.2 0.00 0.00 0.00 70 1011.8
20260509141025 17 250 0.0 1.6 0.00 0.00 0.00 70 1012.0
20260509140504 17 251 0.0 4.8 0.00 0.00 0.00 73 1012.2
20260509140005 17 251 1.6 4.8 0.00 0.00 0.00 75 1012.2
20260509135504 16 272 3.2 6.4 0.00 0.00 0.00 73 1012.2
20260509135025 16 292 4.8 11.3 0.00 0.00 0.00 75 1012.2
20260509134504 16 291 4.8 11.3 0.00 0.00 0.00 73 1012.4
20260509134004 16 280 3.2 9.7 0.00 0.00 0.00 74 1012.7
20260509133504 17 244 0.0 4.8 0.00 0.00 0.00 73 1012.7
20260509133004 17 237 0.0 4.8 0.00 0.00 0.00 71 1012.9
20260509132504 17 53 1.6 6.4 0.00 0.00 0.00 71 1012.9
20260509132004 17 36 1.6 6.4 0.00 0.00 0.00 74 1012.6
20260509131504 17 309 0.0 4.8 0.00 0.00 0.00 75 1012.6
20260509131004 17 286 0.0 4.8 0.00 0.00 0.00 71 1012.7
20260509130525 17 246 0.0 4.8 0.00 0.00 0.00 71 1012.5
20260509130004 17 260 1.6 6.4 0.00 0.00 0.00 68 1012.7
20260509125504 17 260 3.2 6.4 0.00 0.00 0.00 74 1012.7
20260509125004 17 278 3.2 11.3 0.00 0.00 0.00 71 1012.9
20260509124504 17 288 3.2 14.5 0.00 0.00 0.00 70 1013.0
20260509124025 17 280 3.2 14.5 0.00 0.00 0.00 70 1012.9
20260509123504 17 90 1.6 4.8 0.00 0.00 0.00 71 1013.0
20260509123004 17 51 1.6 4.8 0.00 0.00 0.00 72 1013.1
20260509122504 16 41 1.6 6.4 0.00 0.00 0.00 75 1013.1
20260509122004 17 18 1.6 6.4 0.00 0.00 0.00 74 1013.2
20260509121504 17 280 1.6 9.7 0.00 0.00 0.00 75 1013.3
20260509121004 16 277 1.6 9.7 0.00 0.00 0.00 74 1013.4
20260509120504 16 260 1.6 6.4 0.00 0.00 0.00 74 1013.4
20260509120004 16 311 1.6 6.4 0.00 0.00 0.00 72 1013.5
20260509115504 16 35 1.6 6.4 0.00 0.00 0.00 77 1013.6
20260509115004 16 58 1.6 6.4 0.00 0.00 0.00 74 1013.6
20260509114504 16 79 1.6 6.4 0.00 0.00 0.00 73 1013.6
20260509114004 17 69 1.6 6.4 0.00 0.00 0.00 73 1013.2
20260509113504 17 71 1.6 4.8 0.00 0.00 0.00 72 1013.4
20260509113004 17 74 0.0 4.8 0.00 0.00 0.00 69 1013.2
20260509112504 17 269 0.0 3.2 0.00 0.00 0.00 70 1013.3
20260509112004 17 254 0.0 3.2 0.00 0.00 0.00 71 1013.4
20260509111504 17 242 0.0 1.6 0.00 0.00 0.00 72 1013.4
20260509111004 17 16 1.6 4.8 0.00 0.00 0.00 71 1013.4
20260509110504 16 62 1.6 4.8 0.00 0.00 0.00 69 1013.6
20260509110004 17 20 1.6 3.2 0.00 0.00 0.00 70 1013.4
20260509105504 17 14 1.6 6.4 0.00 0.00 0.00 69 1013.6
20260509105004 17 27 1.6 6.4 0.00 0.00 0.00 70 1013.8
20260509104504 17 12 1.6 6.4 0.00 0.00 0.00 70 1014.0
20260509104004 17 155 0.0 4.8 0.00 0.00 0.00 71 1013.8
20260509103504 16 46 1.6 6.4 0.00 0.00 0.00 72 1014.0
20260509103004 16 45 1.6 6.4 0.00 0.00 0.00 69 1014.1
20260509102504 16 55 0.0 4.8 0.00 0.00 0.00 72 1014.1
20260509102004 16 322 0.0 3.2 0.00 0.00 0.00 71 1014.3
20260509101504 16 249 0.0 3.2 0.00 0.00 0.00 69 1014.2
20260509101004 16 273 1.6 4.8 0.00 0.00 0.00 69 1014.2
20260509100504 16 270 1.6 4.8 0.00 0.00 0.00 73 1014.0
20260509100005 16 255 1.6 3.2 0.00 0.00 0.00 71 1014.0
20260509095504 16 254 1.6 3.2 0.00 0.00 0.00 72 1014.1
20260509095004 16 252 0.0 3.2 0.00 0.00 0.00 71 1013.8
20260509094525 16 213 0.0 1.6 0.00 0.00 0.00 67 1013.9
20260509094025 16 236 0.0 1.6 0.00 0.00 0.00 66 1014.1
20260509093525 16 188 0.0 3.2 0.00 0.00 0.00 74 1013.8
20260509093004 15 125 1.6 4.8 0.00 0.00 0.00 77 1014.0
20260509092525 15 271 1.6 4.8 0.00 0.00 0.00 76 1014.1
20260509092004 15 249 1.6 3.2 0.00 0.00 0.00 76 1013.9
20260509091504 15 234 0.0 3.2 0.00 0.00 0.00 78 1014.0
20260509091004 15 251 0.0 3.2 0.00 0.00 0.00 79 1014.0
20260509090504 15 248 0.0 3.2 0.00 0.00 0.00 79 1013.9
20260509090004 15 113 0.0 3.2 0.00 0.00 0.00 81 1013.9
20260509085504 15 199 0.0 3.2 0.00 0.00 0.00 80 1014.2
20260509085004 15 203 0.0 3.2 0.00 0.00 0.00 81 1014.2
20260509084504 14 218 1.6 3.2 0.00 0.00 0.00 81 1014.0
20260509084025 15 239 0.0 3.2 0.00 0.00 0.00 79 1013.9
20260509083504 14 291 0.0 3.2 0.00 0.00 0.00 82 1014.0
20260509083004 14 19 0.0 4.8 0.00 0.00 0.00 80 1014.2
20260509082504 13 255 1.6 4.8 0.00 0.00 0.00 84 1014.2
20260509082024 13 254 1.6 4.8 0.00 0.00 0.00 85 1014.7
20260509081504 12 257 0.0 3.2 0.00 0.00 0.00 86 1014.7
20260509081004 13 265 0.0 3.2 0.00 0.00 0.00 86 1014.1
20260509080504 12 265 1.6 3.2 0.00 0.00 0.00 87 1014.6
20260509080004 12 260 1.6 3.2 0.00 0.00 0.00 87 1014.6
20260509075507 12 261 0.0 3.2 0.00 0.00 0.00 88 1014.7
20260509075004 12 251 1.6 4.8 0.00 0.00 0.00 90 1014.7
20260509074524 11 257 1.6 4.8 0.00 0.00 0.00 91 1014.6
20260509074004 11 266 3.2 4.8 0.00 0.00 0.00 91 1014.6
20260509073504 11 272 3.2 6.4 0.00 0.00 0.00 93 1014.7
20260509073004 11 270 3.2 6.4 0.00 0.00 0.00 94 1014.6
20260509072503 11 269 3.2 4.8 0.00 0.00 0.00 95 1014.5
20260509072004 10 270 1.6 4.8 0.00 0.00 0.00 96 1014.2
20260509071525 10 262 1.6 3.2 0.00 0.00 0.00 96 1014.2
20260509071004 10 259 1.6 3.2 0.00 0.00 0.00 96 1014.0
20260509070504 10 256 1.6 3.2 0.00 0.00 0.00 96 1013.9
20260509070004 10 260 0.0 4.8 0.00 0.00 0.00 95 1013.9
20260509065504 10 347 1.6 4.8 0.00 0.00 0.00 95 1014.1
20260509065004 10 24 0.0 3.2 0.00 0.00 0.00 95 1014.1
20260509064503 10 246 0.0 1.6 0.00 0.00 0.00 96 1013.9